Regional Weather Roundup
Issued by NWS Sterling, VA

Home | Current Version | Previous Version | Text Only | Print | Product List | Glossary On
Versions: 1 2 3 4 5 6 7 8 9 10 11 12 13 14 15 16 17 18 19 20 21 22 23 24 25 26 27 28 29 30 31 32 33 34 35 36 37 38 39 40 41 42 43 44 45 46 47 48 49 50
000
ASUS41 KLWX 130410
RWRLWX

REGIONAL WEATHER ROUNDUP
NATIONAL WEATHER SERVICE BALTIMORE MD/WASHINGTON DC
1100 PM EST FRI FEB 12 2016

Note: "FAIR" indicates few or no clouds below 12,000 feet
with no significant weather and/or obstructions to visibility.
 TC=TEMPERATURE CELSIUS

 * =Non NWS site. Station does not report precipitation (e.g. rain,
    snow, etc.), thunder, or fog.

DCZ001-MDZ009-015-VAZ040>042-051-053>054-130500-
WASHINGTON METRO

CITY           SKY/WX    TMP DP  RH WIND       PRES   REMARKS
WASHINGTON NAT FLURRIES  28  17  63 NW10      30.03S WCI  19
DULLES         CLOUDY    25  19  78 W5        30.00F
ANDREWS AFB    MIX PCPN  27  15  59 W8        29.99S WCI  19
FT BELVOIR     FLURRIES  28  14  54 NW8       30.02S WCI  20
QUANTICO       CLOUDY    30  14  51 NW12      30.04R WCI  20
COLLEGE PARK*  CLOUDY    28  19  69 N5        30.01F
LEESBURG*      CLOUDY    28  25  86 W3        30.00F
MANASSAS*      MOCLDY    27  19  74 NW5       30.01F
GAITHERSBURG*  CLOUDY    21  16  79 CALM      30.01F

$$

MDZ006>007-011-014-130500-
BALTIMORE METRO

CITY           SKY/WX    TMP DP  RH WIND       PRES   REMARKS
BWI AIRPORT    CLOUDY    24  17  74 W7        30.00S
MD SCIENCE CTR   N/A     25  18  74 MISG      30.00F
MARTIN STATE   LGT SNOW  27  23  86 SW5       30.02S
ANNAPOLIS      CLOUDY    27  17  66 W5        30.01S
FORT MEADE*    CLOUDY    27  19  74 W6        30.03S

$$

MDZ012-015-019>023-130500-
MARYLAND EASTERN SHORE

CITY           SKY/WX    TMP DP  RH WIND       PRES   REMARKS
OCEAN CITY     CLOUDY    23  19  85 CALM      30.01S
SALISBURY      CLOUDY    24  18  77 CALM      30.00S
BAY BRIDGE AP*   N/A     28  14  54 W3        30.01S
CAMBRIDGE*     CLOUDY    25  19  80 CALM      29.99F
EASTON*        CLOUDY    26  18  71 CALM      30.03F

$$

MDZ017>025-130500-
SOUTHERN MARYLAND

CITY           SKY/WX    TMP DP  RH WIND       PRES   REMARKS
PATUXENT RIVER MOCLDY    25  18  74 SW5       30.01S
ST INIGOES     CLOUDY    28  20  71 W6        30.00S
LEONARDTOWN*     N/A     27  19  74 CALM        N/A

$$

MDZ003>005-130500-
NORTH CENTRAL MARYLAND

CITY           SKY/WX    TMP DP  RH WIND       PRES   REMARKS
FREDERICK*     CLOUDY    25  23  93 W3        30.02F
HAGERSTOWN APT PTCLDY    22  12  65 W8        29.95F WCI  12
WESTMINSTER*   CLOUDY    19  18  93 CALM      29.94F

$$

MDZ501>502-130500-
WESTERN MARYLAND

CITY           SKY/WX    TMP DP  RH WIND       PRES   REMARKS
OAKLAND*       CLOUDY    12  10  92 W17G26    29.82F FOG     WCI  -5
CUMBERLAND*    PTCLDY    27  10  50 W13G25    30.01S WCI  16

$$

VAZ025>031-130500-
SHENANDOAH VALLEY

CITY           SKY/WX    TMP DP  RH WIND       PRES   REMARKS
WINCHESTER*    CLOUDY    28  16  59 NW15G21   29.97S WCI  17
FRONT ROYAL*   CLOUDY    25  21  86 NW5       29.97F
LURAY*         CLOUDY    28  16  59 NW9       29.96S WCI  20
NEW MARKET*    CLOUDY    27  15  61 W5        29.96S
STAUNTON*      CLOUDY    32  13  44 NW16      29.97R WCI  22
WAYNESBORO*    CLOUDY    28  10  47 W10G21    29.94R WCI  19

$$

WVZ021-048>050-054>055-130500-
EASTERN WEST VIRGINIA PANHANDLE

CITY           SKY/WX    TMP DP  RH WIND       PRES   REMARKS
MARTINSBURG    CLOUDY    24  13  62 W10       29.98S WCI  14
PETERSBURG*    FLURRIES  26  13  59 NW13G20   29.99S WCI  15

$$

VAZ036>039-050-130500-
CENTRAL FOOTHILLS

CITY           SKY/WX    TMP DP  RH WIND       PRES   REMARKS
CHARLOTTESVILL CLOUDY    29  19  66 CALM      29.97S
CULPEPER*      CLOUDY    25  18  76 CALM      30.01S
ORANGE*        CLOUDY    30  21  69 CALM      30.00F
GORDONSVILLE*  CLOUDY    27  20  75 CALM      29.98S
WARRENTON*     MOCLDY    27  21  80 CALM      30.00S

$$

VAZ055>057-130500-
NORTH AND CENTRAL PIEDMONT

CITY           SKY/WX    TMP DP  RH WIND       PRES   REMARKS
FREDERICKSBRG* MOCLDY    28  18  67 CALM      30.01S
STAFFORD*      MOCLDY    25  13  60 N5        30.05S

$$

NCZ024-NYZ072-PAZ021-071-VAZ022-071-130500-
OTHER REGIONAL OBSERVATIONS

CITY           SKY/WX    TMP DP  RH WIND       PRES   REMARKS
NEW YORK CITY  CLOUDY    22   5  48 VRB7      29.95F
PHILADELPHIA   FLURRIES  23  16  74 W7        29.99F
PITTSBURGH     FLURRIES  18  10  71 W23G37    29.98R WCI   0
ROANOKE        MOCLDY    32  15  49 NW18G26   30.00S WCI  20
RICHMOND       MOCLDY    24  19  81 CALM      30.01R
RALEIGH        MOCLDY    30  22  72 SW7       30.03F

$$

ANZ530>537-130500-
MARINE OBSERVATIONS

STATION/POSITION TIME  TEMP    WIND        PRES
                       AIR SEA DIR/SP/G
                 (UTC) (F)     (DEG/KT/KT) (MB)
THOMAS PT LIGHT  0400   27     270/  9     1017.0S
BALT KEY BRIDGE  0300   26                 1016.4R
COVE POINT       0300   26                 1016.7S
LEWISETTA        0300   27 37              1015.9F
SOLOMONS ISLAND  0300   28 39                N/A
PINEY POINT      0300          260/  4/  6   N/A

$$




USA.gov is the U.S. government's official web portal to all federal, state and local government web resources and services.